Showing default

HULIANWANG DIGUI-164, 68656

Orbit data source: Space-Track

HULIANWANG DIGUI-164, 68656 is a payload satellite owned by Zhongguo Xingwang (CN) in LEO that was launched on Wed, 08 Apr 2026 UTC via a CHANG ZHENG 6A launch vehicle from the Taiyaun Space Center, China (TSC). Payload-class satellites include a variety of spacecraft equipped with specific instruments for various scientific and technological missions. These include communications satellites like Starlink; space stations such as the ISS; scientific satellites like the Hubble; Earth observation satellites from companies like Planet Labs, Umbra, and HawkEye 360; GPS; miniature CubeSats for education and research; and military/defense satellites.

Loading next visibility...
Identifier
68656, 2026-076A
Orbit
LEO
Country
Flag of CNCN / PRC
Related business
Manufacturer
SECM
Mission
Operational spacecraft
Bus & Motor
XINGWANG S, Unknown motor
Mass
~800 kg wet, ~800 kg dry
Launch date (UTC)
2026-04-08 (2 months ago)
Launch vehicle
CHANG ZHENG 6A
Launch site
Taiyaun Space Center, China (TSC)
Object type
Payload
Rocket body
Debris
Shape & HBR
Unknown shape, 14.5 m
Radar Cross Section
RCS unknown

Expand to show TLE details & history
Last TLE update: 1 day ago

TLE from 1 day ago
0 HULIANWANG DIGUI-164
1 68656U 26076A   26144.58409529 -.00000404  00000-0 -83699-3 0  9999
2 68656  86.4979  51.8734 0002625  81.2440 278.8997 13.34575222  6244
Epoch: 2026-05-24T14:01Z
TLE epoch observation values (Epoch: 2026-05-24T14:01:05.833Z)
Latitude
-0°
Longitude
-40.58505°
Altitude
1,132.16 km
Speed
7.287 km/s
True Right ascension
03h 27m 29s
True Declination
0° 00' 00"
Sunlit
Object was in daylight at epoch
Visualization orbit readout
Latitude
Unknown
Longitude
Unknown
Altitude
Unknown
Speed
Unknown
Apparent Right ascension
Unknown
Apparent Declination
Unknown
Sunlit
N/A
Visualization observer readout
Local Sidereal Time
09:11:19
Azimuth
Unknown
Elevation
Unknown
Doppler factor
Unknown
Orbital elements
Apogee altitude
1,128.631 km
Perigee altitude
1,124.691 km
Semi-major axis
7,504.798 km
Eccentricity
0.00026
Inclination
86.4979°
RAAN
51.8734°
Arg. of periapsis
81.244°
True anomaly
278.86998°
Mean anomaly
278.8997°
Eccentric anomaly
278.88484°
Mean motion
3.33837 °/min
Orbital period
107.84 mins
BSTAR
-0.00083699
Loading maneuver chart data...
Computing Atmospheric mass density...
Loading historical data...
Loading historical data...
Loading historical data...
Loading historical data...
Loading historical data...
Loading historical data...
Loading historical data...

Documentation

Showing up to 5 results
|